McAlester, OK

8:37 AM CDT on June 22, 2017 (GMT -0500)
McAlester Regional

Weather History for KMLC - January, 2013

Change the Weather History Date:

Friday, January 18, 2013

  Actual Average Record
Temperature  
Mean Temperature 42 °F -  
Max Temperature 57 °F 47 °F 68 °F (1961)
Min Temperature 26 °F 28 °F 3 °F (1984)
Degree Days  
Heating Degree Days 24    
Moisture  
Dew Point 29 °F    
Average Humidity 62    
Maximum Humidity 100    
Minimum Humidity 34    
Precipitation  
Precipitation 0.00 in - - ()
Sea Level Pressure  
Sea Level Pressure 30.40 in    
Wind  
Wind Speed 5 mph (South)    
Max Wind Speed 14 mph    
Max Gust Speed 23 mph    
Visibility 10 miles    
Events      
Averages and records for this station are not official NWS values.
T = Trace of Precipitation, MM = Missing Value Source: NWS Daily Summary

Daily Weather History Graph

Daily Weather History Graph

Search for Another Location

Airport or City:

Trip Planner

Search our weather history database for the weather conditions in past years. The results will help you decide how hot, cold, wet, or windy it might be!

Date:

Astronomy

Jan. 18, 2013 Rise Set
Actual Time 7:29 AM CST 5:38 PM CST
Civil Twilight 7:02 AM CST 6:05 PM CST
Nautical Twilight 6:31 AM CST 6:36 PM CST
Astronomical Twilight 6:00 AM CST 7:06 PM CST
Moon 11:28 AM CST (1/18) 12:10 AM CST (1/18)
Length of Visible Light 11h 03m
Length of Day
10h 08m
Waxing Crescent, 47% of the Moon is Illuminated
Jan 18
Waxing Crescent
Jan 18
First Quarter
Jan 26
Full
Feb 3
Last Quarter
Feb 10
New

Hourly Weather History & Observations

Time (CST) Temp. Windchill Dew Point Humidity Pressure Visibility Wind Dir Wind Speed Gust Speed Precip Events Conditions
12:53 AM 27.0 °F - 26.1 °F 96% 30.52 in 10.0 mi Calm Calm - N/A   Clear
1:53 AM 26.1 °F - 26.1 °F 100% 30.53 in 10.0 mi Calm Calm - N/A   Partly Cloudy
2:53 AM 26.1 °F - 24.1 °F 92% 30.52 in 10.0 mi Calm Calm - N/A   Clear
3:53 AM 28.0 °F - 26.1 °F 92% 30.51 in 10.0 mi Calm Calm - N/A   Clear
4:53 AM 30.0 °F 25.2 °F 27.0 °F 88% 30.48 in 10.0 mi ESE 4.6 mph - N/A   Mostly Cloudy
5:53 AM 30.9 °F 27.5 °F 28.0 °F 89% 30.48 in 10.0 mi ESE 3.5 mph - N/A   Partly Cloudy
6:53 AM 30.0 °F - 27.0 °F 88% 30.49 in 10.0 mi Calm Calm - N/A   Clear
7:53 AM 26.1 °F - 26.1 °F 100% 30.50 in 10.0 mi Calm Calm - N/A   Clear
8:53 AM 39.0 °F 34.0 °F 30.0 °F 70% 30.50 in 10.0 mi South 6.9 mph - N/A   Partly Cloudy
9:53 AM 45.0 °F 38.5 °F 28.0 °F 52% 30.51 in 10.0 mi South 13.8 mph 23.0 mph N/A   Clear
10:53 AM 48.9 °F - 27.0 °F 43% 30.49 in 10.0 mi South 12.7 mph 19.6 mph N/A   Clear
11:53 AM 51.1 °F - 27.0 °F 39% 30.45 in 10.0 mi South 11.5 mph 23.0 mph N/A   Clear
12:53 PM 54.0 °F - 28.9 °F 38% 30.41 in 10.0 mi South 12.7 mph 18.4 mph N/A   Scattered Clouds
1:53 PM 55.9 °F - 30.0 °F 37% 30.37 in 10.0 mi South 9.2 mph 17.3 mph N/A   Clear
2:53 PM 57.0 °F - 28.9 °F 34% 30.34 in 10.0 mi South 12.7 mph 21.9 mph N/A   Partly Cloudy
3:53 PM 57.0 °F - 28.9 °F 34% 30.32 in 10.0 mi South 12.7 mph 21.9 mph N/A   Partly Cloudy
4:53 PM 55.9 °F - 30.9 °F 39% 30.31 in 10.0 mi South 8.1 mph 17.3 mph N/A   Partly Cloudy
5:53 PM 52.0 °F - 30.9 °F 45% 30.30 in 10.0 mi South 5.8 mph - N/A   Clear
6:53 PM 50.0 °F - 30.9 °F 48% 30.31 in 10.0 mi South 5.8 mph - N/A   Scattered Clouds
7:53 PM 50.0 °F - 32.0 °F 50% 30.29 in 10.0 mi South 10.4 mph 17.3 mph N/A   Scattered Clouds
8:53 PM 48.9 °F - 32.0 °F 52% 30.28 in 10.0 mi South 9.2 mph - N/A   Clear
9:53 PM 48.0 °F - 30.9 °F 52% 30.27 in 10.0 mi South 9.2 mph 17.3 mph N/A   Clear
10:53 PM 48.0 °F - 34.0 °F 58% 30.26 in 10.0 mi South 11.5 mph 19.6 mph N/A   Mostly Cloudy
11:53 PM 46.0 °F 41.9 °F - N/A% 30.25 in 10.0 mi South 8.1 mph - N/A   Scattered Clouds